weather.gov     
National Weather Service

Terminal Aerodrome Forecast
NWS Homepage
This page is being discontinued on March 12, 2014.
The same data is available at this site. Please update your bookmarks.
Thank you, and we apologize for the inconvenience.
Please send an email to SR-SRH.Webmaster@noaa.gov with any concerns.


Current Version
Previous Version:    01  02  03  04  05  06  07  08  09  10  11  12  13  14  15  16  17  18  19  20  21  22  23  24  25  26  27  28  29  30  
   31  32  33  34  35  36  37  38  39  40  41  
[Printable]
835
FTUS43 KDMX 301740
TAFMCW
TAF
KMCW 301740Z 3018/0118 12012KT P6SM OVC008
     FM302000 13013KT P6SM SCT007 BKN250
     FM010500 13013KT P6SM -SHRA SCT025 BKN050
     FM010700 14012KT 4SM -TSRA BKN015CB
     FM011200 15011KT 5SM -SHRA BR BKN010=


835
FTUS43 KDMX 301740
TAFMCW
TAF
KMCW 301740Z 3018/0118 12012KT P6SM OVC008
     FM302000 13013KT P6SM SCT007 BKN250
     FM010500 13013KT P6SM -SHRA SCT025 BKN050
     FM010700 14012KT 4SM -TSRA BKN015CB
     FM011200 15011KT 5SM -SHRA BR BKN010=




U.S. Dept. of Commerce
NOAA National Weather Service
1325 East West Highway
Silver Spring, MD 20910
E-mail: w-nws.webmaster@noaa.gov
Page last modified: May 16, 2007
NATIONAL WEATHER SERVICE: for Safety, for Work, for Fun - FOR LIFE